Regional Weather Roundup
Issued by NWS Sioux Falls, SD

Home | Current Version | Previous Version | Graphics & Text | Print | Product List | Glossary On
Versions: 1 2 3 4 5 6 7 8 9 10 11 12 13 14 15 16 17 18 19 20 21 22 23 24 25 26 27 28 29 30 31 32 33 34 35 36 37 38 39 40 41 42 43 44 45 46 47 48 49 50
000
ASUS43 KFSD 191510
RWRFSD

WEATHER ROUNDUP FOR SE SOUTH DAKOTA/SW MINNESOTA/NW IOWA
NATIONAL WEATHER SERVICE SIOUX FALLS SD
1000 AM CDT FRI SEP 19 2014

NOTE: "FAIR" INDICATES FEW OR NO CLOUDS BELOW 12,000 FEET WITH NO
SIGNIFICANT WEATHER AND OR OBSTRUCTIONS TO VISIBILITY.


SDZ038>040-050-052>070-191600-
SOUTHEAST SOUTH DAKOTA

CITY           SKY/WX    TMP DP  RH WIND       PRES   REMARKS
CHAMBERLAIN    MOSUNNY   70  63  78 SW13      29.69S
HURON          CLOUDY    69  63  81 S14G20    29.66F
MADISON        CLOUDY    64  64 100 S18G28    29.73F
MITCHELL       MOSUNNY   71  64  78 S17G24    29.69F
SIOUX FALLS    CLOUDY    68  62  81 S20G30    29.76F
WINNER         FAIR      74  63  68 W14       29.73R
YANKTON        SUNNY     72  63  73 S16G24    29.77F
$$

MNZ071-072-080-081-089-090-097-098-191600-
SOUTHWEST MINNESOTA

CITY           SKY/WX    TMP DP  RH WIND       PRES   REMARKS
FAIRMONT       CLOUDY    61  52  72 S18G24    29.85F
JACKSON        CLOUDY    63  59  88 S15G24    29.84F
LUVERNE        CLOUDY    64  61  88 S16G23    29.80F FOG
MARSHALL       CLOUDY    66  61  82 S24G32    29.72F
MONTEVIDEO     CLOUDY    64  61  88 SW12G20   29.72F
PIPESTONE      CLOUDY    63  61  94 S22       29.76F FOG
REDWOOD FALLS  CLOUDY    64  60  87 S21       29.77F
TRACY          CLOUDY    65  62  90 S21G29    29.75F FOG
WINDOM         CLOUDY    63  61  94 S16G23    29.81F FOG
WORTHINGTON    CLOUDY    63  61  94 S16G24    29.82F
$$

IAZ001>003-012>014-020>022-031-032-NEZ013-014-SDZ071-191600-
NORTHWEST IOWA

CITY           SKY/WX    TMP DP  RH WIND       PRES   REMARKS
CHEROKEE       CLOUDY    67  63  89 S18G24    29.86F
DENISON        PTSUNNY   66  63  88 S16G26    29.90R
ESTHERVILLE    CLOUDY    61  59  93 S18G29    29.85F FOG
LE MARS        CLOUDY    66  63  88 S14G23    29.84S
ORANGE CITY    CLOUDY    66  63  88 S16G25    29.83F
SHELDON        CLOUDY    64  63  94 S17G28    29.83F
SIOUX CITY     CLOUDY    69  63  81 S17G28    29.85F
SPENCER        CLOUDY    64  59  83 S10       29.86F
STORM LAKE     MOSUNNY   66  64  94 S15G23    29.88S
$$

ABBREVIATIONS USED IN REMARKS
   TC - TEMPERATURE IN CELSIUS
  WCI - WIND CHILL INDEX
   HX - HEAT INDEX
  VSB - VISIBILITY



USA.gov is the U.S. government's official web portal to all federal, state and local government web resources and services.